Время (UTC), дата Ветер
(°,м/с) 
Видим.   Явления Облачность Т
(°С)
Тd
(°С)
f(%) Тe
(°С)
Pmin
(гПа)
dP
(гПа)
Po
(мм)
O2
(г/м3)
Тmin Tmax R s Состояние
почвы
00 01.11.15 030 (СВ) 10 км    ясно 
+0.2 -4.6 70 -1  1040.8  0.1  778  314           
03 01.11.15 030 (СВ) 10 км    ясно 
-0.1 -4.7 71 -1  1040.6  -0.2  778  314  -0.2         
06 01.11.15 060 (СВ) 10 км    10/0 верхняя 
[Ci]
+3 -4.2 59 +2  1040.3  -0.2  777  310  -0.5         
09 01.11.15 040 (СВ) 10 км    3/0 верхняя 
[Cc]
+8.9 -4.7 38 +8  1039.5  -0.7  777  304           
12 01.11.15 030 (СВ) 10 км    9/0 средняя, верхняя 
[Ac trans|Cc]
+10.4 -8.2 26 +10  1037.6  -1.9  775  302           
15 01.11.15 030 (СВ) 10 км    3/0 средняя 
[Ac trans]
+5.9 -6.2 41 +7  1037.2  -0.4  775  306    +10.9       
18 01.11.15 030 (СВ) 10 км    3/0 средняя 
[Ac trans]
+3.8 -5.8 50 +5  1036.9  -0.3  775  309           
21 01.11.15 тихо ()   10 км    10/10 1000 м 
[Sc]
+3.2 -4.5 57 +3  1036  -0.3  774  309           
00 02.11.15 тихо ()   10 км    8/0 средняя 
[Ac trans]
+1 -3.5 72 +1  1034.9  -1.2  773  311           
03 02.11.15 тихо ()   10 км    3/0 средняя 
[Ac trans]
-0.9 -3.1 85 -1  1033.7  -1.2  772  313  -1         
06 02.11.15 250 (З) 10 км    10/0 средняя, верхняя 
[Ac trans|Cs]
+3.4 -3.1 62 +4  1033.2  -0.5  772  308           
09 02.11.15 220 (ЮЗ) 10 км    9/0 средняя, верхняя 
[Ac trans|Cc]
+8.6 -6.1 35 +10  1031.4  -1.7  771  302           
12 02.11.15 260 (З) 10 км    8/0 средняя, верхняя 
[Ac trans|Cc]
+11 -5.8 30 +11  1028.9  -2.5  769  298           
15 02.11.15 230 (ЮЗ) 10 км    9/0 средняя, верхняя 
[Ac trans|Cc]
+8.4 -1.5 50 +9  1027.9  -1  768  300    +11.9       
18 02.11.15 210 (ЮЗ) 10 км    6/0 верхняя 
[Cc]
+6.5 -2.8 51 +6  1027.5  -0.5  768  303           
21 02.11.15 200 (Ю) 10 км    6/0 средняя, верхняя 
[Ac trans|Cc]
+6.2 -4.6 46 +7  1026.5  -1  767  303           
00 03.11.15 210 (ЮЗ) 10 км    9/0 
[Sc]
+8.5 +3.2 69 +9  1025.3  -1.1  766  299           
03 03.11.15 250 (З) 10 км    8/0 средняя, верхняя 
[Ac trans|Ci fib]
+9.2 +4.7 73 +9  1024.3  -0.9  765  298  +5.8         
06 03.11.15 210 (ЮЗ) 10 км    9/0 средняя, верхняя 
[Ac As|Cc]
+11.6 +5.1 64 +12  1023.9  -0.3  765  295           
09 03.11.15 230 (ЮЗ) 4{10}  10 км    8/3 1000 м средняя, верхняя 
[Sc|Ac trans|Ci fib]
+17 +4.4 43 +17  1022.7  -1.1  764  289           
12 03.11.15 240 (ЮЗ) 4{12}  10 км    9/4 1000 м средняя 
[Sc|Ac trans]
+15.4 +5.8 53 +15  1022  -0.8  764  290           
15 03.11.15 220 (ЮЗ) 10 км    3/3 1000 м 
[Sc]
+13 +6 62 +13  1022.5  0.5  764  293    +17.1       
18 03.11.15 250 (З) 10 км    1/1 1000 м 
[Sc]
+11.1 +6.2 72 +11  1023.5  0.9  765  295           
21 03.11.15 270 (З) 4000 м  дымка  9/9 1000 м 
[Sc]
+8.5 +4.3 75 +10  1024.3  0.8  765  298           
00 04.11.15 тихо ()   4000 м  дымка  ясно 
+6 +4.1 88 +6  1024.1  -0.2  765  301           
03 04.11.15 тихо ()   2000 м  дымка  ясно 
+4.7 +3.4 91 +5  1024.9  0.8  766  303  +4.7         
06 04.11.15 200 (Ю) 4000 м  дымка  ясно 
+7.6 +4.8 82 +9  1025.7  0.8  766  300  +4.1         
09 04.11.15 250 (З) 10 км    ясно 
+14.6 +6.2 57 +16  1024.1  -1.5  765  292           
12 04.11.15 260 (З) 10 км    ясно 
+17.2 +7.3 52 +18  1022.8  -1.2  764  289           
15 04.11.15 тихо ()   10 км    8/0 средняя, верхняя 
[Ac trans|Ci fib]
+12.5 +8.4 76 +13  1022.8  0.1  764  293    +17.4       
18 04.11.15 тихо ()   10 км    3/0 верхняя 
[Ci fib]
+8.2 +6.7 90 +8  1022.8  764  298           
21 04.11.15 тихо ()   4000 м  дымка  ясно 
+6.4 +5.4 93 +6  1022.5  -0.4  764  300           
00 05.11.15 тихо ()   4000 м  дымка  3/0 верхняя 
[Ci fib]
+5.6 +4.7 94 +6  1022  -0.5  764  301           
03 05.11.15 тихо ()   4000 м  дымка  9/9 1000 м 
[Sc]
+8.2 +7.2 93 +8  1021  -0.9  763  297  +5.2         
06 05.11.15 тихо ()   10 км    10/10 1000 м 
[Sc]
+9.8 +7.7 87 +10  1021.2  0.2  763  296           
09 05.11.15 250 (З) 10 км    5/5 1000 м 
[Sc diur, vesp]
+15.7 +8.8 63 +16  1020.8  -0.3  763  289           
12 05.11.15 280 (З) 10 км    ясно 
+18.1 +8.9 55 +19  1019.2  -1.6  762  286           
15 05.11.15 280 (З) 10 км    ясно 
+13.6 +8.4 71 +15  1019.7  0.5  762  291    +18.2       
18 05.11.15 280 (З) 4000 м  дымка  ясно 
+10 +7.2 83 +11  1020.5  0.7  763  295           
21 05.11.15 270 (З) 0200 м  туман  ?/?  
+8.6 +7.8 95 +10  1021.5  763  297           
00 06.11.15 030 (СВ) 1000 м  дымка{туман}  10/10 300 м 
[St]
+8.1 +6 87 +9  1022.1  0.5  764  298           
03 06.11.15 050 (СВ) 2000 м  дымка  10/10 200 м 
[St]
+6.6 +4.7 88 +8  1023.3  1.3  765  300  +6.6         
06 06.11.15 070 (В) 0500 м  туман  ?/?  
+6.3 +4.9 91 +7  1024.6  1.3  766  301  +6.2         
09 06.11.15 060 (СВ) 2000 м  дымка{туман}  10/10 300 м 
[St]
+7.7 +4.9 82 +8  1024.3  -0.2  765  299           
12 06.11.15 040 (СВ) 2000 м  дымка{туман}  10/10 300 м 
[St]
+8.3 +5 80 +8  1024.3  765  299           
15 06.11.15 050 (СВ) 4000 м  дымка  10/10 300 м 
[St]
+7.7 +4 77 +8  1024.8  0.5  766  300    +8.5       
18 06.11.15 060 (СВ) 4000 м  дымка  10/10 300 м 
[St]
+7 +3.4 78 +7  1025  0.2  766  300           
21 06.11.15 060 (СВ) 10 км    10/10 300 м 
[St]
+6.8 +3.5 80 +8  1024.9  -0.2  766  301           
00 07.11.15 070 (В) 10 км    10/10 300 м 
[St]
+7.1 +3.9 80 +8  1024.6  -0.2  766  300           
03 07.11.15 060 (СВ) 10 км    9/9 300 м 
[St]
+6.7 +3.7 81 +7  1024.6  -0.1  766  301  +6.7         
06 07.11.15 100 (В) 10 км    9/9 300 м 
[St]
+7.3 +3.7 78 +8  1025.3  0.8  766  300  +6.6         
09 07.11.15 090 (В) 10 км    8/4 600 м средняя 
[Sc|Ac trans]
+11.6 +5.1 64 +11  1024.8  -0.4  766  295           
12 07.11.15 080 (В) 10 км    8/3 1000 м средняя, верхняя 
[Sc|Ac trans|Ci fib]
+13.2 +5.2 58 +14  1023.3  -1.5  765  293           
15 07.11.15 070 (В) 10 км    9/8 1000 м средняя 
[Sc|Ac trans]
+11.5 +4.2 61 +13  1023.4  765  295    +13.9       
18 07.11.15 060 (СВ) 10 км    9/9 1000 м 
[Sc]
+11 +3.4 59 +12  1023.3  0.1  765  296           
21 07.11.15 тихо ()   10 км    9/9 600 м 
[Sc]
+10.9 +5.2 68 +11  1023.2  765  296           
00 08.11.15 270 (З) 4000 м  дымка  9/9 600 м 
[Sc]
+10.3 +6.1 75 +11  1023.4  0.1  765  296           
03 08.11.15 230 (ЮЗ) 4000 м  дымка  9/9 600 м 
[Sc]
+9.2 +4.9 75 +10  1023.5  0.1  765  297  +9.2         
06 08.11.15 тихо ()   4000 м  дымка  10/10 1000 м 
[Sc]
+9.3 +5.5 77 +9  1023.7  0.2  765  297  +8.9         
09 08.11.15 220 (ЮЗ) 4000 м  дымка  10/10 300 м 
[St]
+9.4 +5.5 77 +10  1023.4  -0.4  765  297           
12 08.11.15 тихо ()   1000 м  слаб. дождь{морось}  10/10 200 м 
[St]
+8.7 +7.4 92 +9  1022.2  -1.2  764  297           
15 08.11.15 170 (Ю) 1000 м  дымка{дождь}  10/10 300 м 
[St]
+8.4 +7.3 93 +9  1021.2  -0.9  763  297    +9.8     
18 08.11.15 тихо ()   1000 м  дымка{дождь}  10/10 300 м 
[St]
+8 +6.9 93 +8  1020  -1.2  762  297           
21 08.11.15 тихо ()   4000 м  дымка{дождь}  10/10 600 м 
[Sc]
+8.2 +7 92 +8  1018  -2  761  296           
00 09.11.15 060 (СВ) 4000 м  дымка{дождь}  10/10 300 м 
[St]
+8 +6.9 93 +9  1016.3  -1.7  759  296           
03 09.11.15 тихо ()   4000 м  дымка{дождь}  10/10 300 м 
[St]
+7.7 +6.7 93 +8  1014.8  -1.5  758  296  +7.7       
06 09.11.15 140 (ЮВ) 4000 м  дымка{дождь}  10/10 200 м 
[Sc diur, vesp]
+8 +6.8 92 +9  1013.6  -1.2  757  295           
09 09.11.15 080 (В) 4000 м  слаб. дождь  10/10 300 м 
[Frnb]
+10 +7.9 87 +10  1012.3  -1.2  757  293           
12 09.11.15 090 (В) 10 км  {дождь}  10/10 300 м 
[Frnb]
+11.1 +8.2 82 +12  1011.1  -1.2  756  291           
15 09.11.15 110 (В) 10 км  слаб. дождь  10/10 300 м 
[Frnb]
+11.3 +8.6 83 +12  1011.6  0.5  756  291    +11.7     
18 09.11.15 110 (В) 10 км  {дождь}  8/8 300 м 
[St]
+10.5 +8.4 87 +12  1012.7  1.1  757  292           
21 09.11.15 тихо ()   4000 м  дымка  ясно 
+7.5 +6.3 92 +8  1013.2  0.4  757  296           
00 10.11.15 тихо ()   0200 м  туман  ?/?  
+7.8 +7 95 +8  1013.8  0.6  758  296           
03 10.11.15 290 (З) 0200 м  туман  ?/?  
+7.2 +6.5 95 +7  1014.5  0.7  758  297  +6.7    0.4     
06 10.11.15 290 (З) 0500 м  туман  ?/?  
+7.7 +7.1 96 +9  1015.2  0.7  759  296           
09 10.11.15 210 (ЮЗ) 4000 м  дымка{туман}  10/10 200 м 
[St]
+9.9 +7.7 86 +10  1014.3  -0.8  758  293           
12 10.11.15 270 (З) 10 км  {туман}  9/9 600 м 
[Sc]
+11.2 +6.6 73 +11  1012.8  -1.5  757  292           
15 10.11.15 250 (З) 10 км    3/3 1000 м 
[Sc]
+9.2 +4.9 75 +9  1012.7  -0.2  757  294    +11.8       
18 10.11.15 190 (Ю) 10 км    6/4 1000 м средняя 
[Sc|Ac trans]
+9.3 +5.1 75 +9  1010.8  -1.9  755  294           
21 10.11.15 200 (Ю) 4000 м  слаб. ливневой дождь  10/8 1000 м кучево-дожд., средняя 
[Cb cap|Ac und]
+9.3 +7.5 89 +9  1008.3  -2.4  754  292           
00 11.11.15 200 (Ю) 4000 м  слаб. ливневой дождь  10/10 600 м кучево-дожд. 
[Cb cap]
+9.8 +8.7 93 +10  1005.3  -3  751  291           
03 11.11.15 220 (ЮЗ) 4000 м  слаб. ливневой дождь  10/10 300 м кучево-дожд. 
[Cb cap]
+9.7 +8.8 94 +10  1002.7  -2.6  749  290  +8.8    19     
06 11.11.15 250 (З) 4000 м  слаб. дождь{ливн. осадки}  10/10 300 м 
[Sc diur, vesp]
+10.9 +9.9 93 +12  1001.7  -1  749  288           
09 11.11.15 260 (З) 2000 м  ливневой дождь  10/10 200 м кучево-дожд. 
[Cb cap]
+11.2 +10.1 93 +12  1000.5  -1.2  748  288           
12 11.11.15 290 (З) 3{12}  10 км  {ливн. осадки, дождь}  8/4 1000 м кучево-дожд., средняя 
[Cb cap|Ac trans]
+10.6 +3.7 62 +10  1003.3  2.8  750  290           
15 11.11.15 260 (З) 3{10}  10 км    10/10 300 м 
[Sc diur, vesp]
+9.8 +5.2 73 +9  1007.1  3.7  753  292    +11.8  11     
18 11.11.15 240 (ЮЗ) 10 км    9/9 1000 м 
[Sc]
+9 +5.8 80 +8  1009.2  754  293           
21 11.11.15 220 (ЮЗ) 10 км    9/9 600 м 
[Sc]
+9.3 +4.8 74 +9  1009.3  0.1  754  293           
00 12.11.15 260 (З) 10 км  {ливн. осадки}  9/9 300 м 
[St]
+9.7 +7.3 85 +9  1009.8  0.6  755  292           
03 12.11.15 260 (З) 3{10}  10 км    ясно 
+8.5 +4.8 78 +8  1013.1  3.2  757  295  +8       
06 12.11.15 240 (ЮЗ) 10 км    6/3 600 м средняя 
[St|Ac trans]
+9.7 +6.3 79 +9  1016.3  3.2  759  294           
09 12.11.15 260 (З) 5-10{11}  10 км    8/8 300 м кучево-дожд. 
[Cb cap]
+13.1 +5.2 59 +12  1017.5  1.3  760  292           
12 12.11.15 270 (З) 4{12}  10 км    3/3 600 м 
[Sc diur, vesp]
+13.3 +4.5 55 +13  1019  1.5  762  292           
15 12.11.15 270 (З) 10 км    3/3 300 м 
[Sc diur, vesp]
+10.1 +6 76 +10  1021.3  2.2  763  296    +14.5       
18 12.11.15 230 (ЮЗ) 10 км    ясно 
+8.7 +5.9 83 +9  1022  0.7  764  297           
21 12.11.15 200 (Ю) н/о    н/о 
+8.8 +5.5 80 +9  1021.7  -0.3  764  297           
03 13.11.15 220 (ЮЗ) 4{10}  4000 м  ливневой дождь{морось}  10/10 300 м кучево-дожд. 
[Cb cap]
+12 +9.6 85 +11  1017.4  -2.1  760  292  +7.8    0.0     
06 13.11.15 200 (Ю) 3{10}  4000 м  слаб. ливневой дождь{морось}  10/10 600 м кучево-дожд. 
[Cb cap]
+12 +10.9 93 +14  1014.9  -2.4  758  291           
09 13.11.15 270 (З) 5-11{14}  4000 м  слаб. ливневой дождь  9/9 300 м кучево-дожд. 
[Cb cap]
+11.9 +9.2 83 +11  1014.6  -0.4  758  291           
12 13.11.15 280 (З) 5-12{14}  10 км  {ливн. осадки}  8/8 600 м кучево-дожд. 
[Cb cap]
+12.3 +5.6 64 +11  1016.4  1.8  760  292           
15 13.11.15 260 (З) 6-12{12}  10 км    10/10 600 м 
[St]
+11 +5.2 67 +10  1018  1.5  761  294    +13.2  14     
18 13.11.15 290 (З) 3{13}  10 км    10/10 1000 м 
[Sc]
+7.5 +3.4 75 +7  1023.3  5.2  765  299           
21 13.11.15 330 (СЗ) 10 км    10/10 1000 м 
[Sc]
+5.9 +1.7 74 +6  1026.5  3.2  767  302           
00 14.11.15 260 (З) 10 км    8/8 1000 м 
[Sc]
+5.6 +1.1 73 +5  1027.7  3.2  768  303           
03 14.11.15 190 (Ю) 10 км    3/3 1000 м 
[Sc]
+4.4 +1.5 81 +5  1027.5  -0.2  768  304  +4.2         
06 14.11.15 200 (Ю) 10 км    9/8 600 м средняя 
[Sc|Ac trans]
+6.5 +2.4 75 +6  1027.8  0.3  768  302           
09 14.11.15 230 (ЮЗ) 10 км    9/8 600 м средняя 
[Sc|Ac trans]
+11.2 +4.8 65 +11  1026.6  -1.1  767  296           
12 14.11.15 250 (З) 10 км    9/4 1000 м средняя 
[Sc|Ac trans]
+12.3 +3.4 55 +14  1024.3  -2.2  766  295           
15 14.11.15 180 (Ю) 10 км    8/3 1000 м средняя, верхняя 
[Sc|Ac trans|Ci fib]
+9.9 +5.2 73 +11  1022.2  -2.2  764  296    +12.6       
18 14.11.15 200 (Ю) 10 км    10/0 средняя 
[Ac und]
+9.3 +3.4 67 +9  1019.2  -2.9  762  296           
21 14.11.15 тихо ()   10 км    10/0 средняя, верхняя 
[Ac trans|Ci fib]
+9.1 +3.7 69 +9  1016.4  -2.8  760  296           
00 15.11.15 210 (ЮЗ) 10 км    10/0 средняя 
[Ac und]
+11.4 +4.8 64 +11  1013.6  -2.8  757  292           
03 15.11.15 190 (Ю) 10 км    9/3 1000 м средняя 
[Sc|Ac trans]
+11.3 +5.6 68 +11  1011.2  -2.3  756  292  +8.4         
06 15.11.15 280 (З) 4000 м  слаб. ливневой дождь  10/10 300 м кучево-дожд. 
[Cb cap]
+7.3 +6 91 +7  1013.5  2.3  757  296  +7.3         
09 15.11.15 260 (З) 10 км  {ливн. осадки}  10/10 600 м кучево-дожд. 
[Cb cap]
+8.6 +5.6 81 +8  1013.9  2.3  758  295           
12 15.11.15 250 (З) 2{10}  10 км  {ливн. осадки}  9/9 1000 м 
[Sc diur, vesp]
+8.2 +2.2 66 +8  1015.1  1.2  759  296           
15 15.11.15 220 (ЮЗ) 10 км    4/3 1000 м верхняя 
[Sc diur, vesp|Ci fib]
+6.8 +2 71 +7  1015.7  0.6  759  298    +12.4     
18 15.11.15 190 (Ю) 10 км    ясно 
+4.9 -0.3 69 +5  1015.4  -0.3  759  300           
21 15.11.15 210 (ЮЗ) 10 км    ясно 
+5 -0.3 69 +5  1016  0.5  759  300           
00 16.11.15 190 (Ю) 10 км    8/8 1000 м 
[Sc diur, vesp]
+5.3 -0.2 68 +6  1015.6  -0.4  759  300           
03 16.11.15 170 (Ю) 10 км    8/8 1000 м 
[Sc]
+5.2 +1.9 79 +6  1015  -0.6  758  300  +4.1         
06 16.11.15 130 (ЮВ) 4000 м  слаб. ливневой дождь  10/10 1000 м кучево-дожд. 
[Cb cap]
+6.2 +4.1 86 +7  1014  -1  758  298           
09 16.11.15 200 (Ю) 10 км  в посл. час ливневой дождь  10/3 1000 м кучево-дожд., средняя, верхняя 
[Cb cap|Ac cast|Ci fib]
+10.7 +5.5 70 +10  1011.4  -2.6  756  292           
12 16.11.15 200 (Ю) 3{11}  10 км  {ливн. осадки}  10/3 1000 м кучево-дожд., средняя 
[Cb cap|Ac und]
+11.8 +2.6 53 +12  1008.1  -3.2  753  291           
15 16.11.15 190 (Ю) 2{10}  4000 м  слаб. ливневой дождь  10/8 600 м кучево-дожд., средняя 
[Cb cap|Ac und]
+9.8 +5.2 73 +10  1005.7  -2.5  752  291    +12     
18 16.11.15 170 (Ю) 4-10{10}  10 км  {ливн. осадки}  10/5 600 м кучево-дожд., средняя 
[Cb cap|Ac und]
+10.6 +4.8 67 +10  1002  -3.7  749  290           
21 16.11.15 190 (Ю) 1{14}  10 км  в посл. час гроза{ливн. осадки}  10/10 300 м кучево-дожд. 
[Cb cap]
+5.6 +4.8 95 +6  1002.1  -0.1  749  295           
00 17.11.15 220 (ЮЗ) 4{10}  10 км  {гроза, ливн. осадки}  10/10 600 м кучево-дожд. 
[Cb cap]
+5.9 +3.7 86 +4  1004.3  2.2  750  295           
03 17.11.15 290 (З) 5-13{16}  4000 м  слаб. ливневой дождь  10/10 300 м кучево-дожд. 
[Cb cap]
+4.3 +1.3 81 +2  1011.6  7.2  756  300  +3.9    12     
06 17.11.15 300 (СЗ) 3{14}  10 км  {ливн. осадки}  10/10 300 м кучево-дожд. 
[Cb cap]
+3.6 +0.9 83 +2  1018.5  6.8  761  303  +3.6         
09 17.11.15 320 (СЗ) 10 км  слаб. дождь  10/10 300 м 
[Sc diur, vesp]
+3.7 +0.9 82 +3  1021.8  3.3  764  303           
12 17.11.15 280 (З) 10 км  {дождь}  10/10 300 м 
[Frnb]
+4.3 -0.2 73 +4  1023  1.2  764  303           
15 17.11.15 320 (СЗ) 10 км    9/9 300 м 
[St]
+4 -1.3 68 +5  1024.2  1.2  765  304    +4.5  0.3     
18 17.11.15 030 (СВ) 10 км    10/10 300 м 
[St]
+3.7 -2.3 65 +5  1024.8  0.6  766  305           
21 17.11.15 230 (ЮЗ) 4000 м  дымка  9/9 300 м 
[St]
+3.6 -1.9 67 +4  1024.9  0.1  766  305           
00 18.11.15 190 (Ю) 4000 м    ясно 
+0.3 -1.6 87 +1  1024.6  -0.3  766  308           
03 18.11.15 тихо ()   4000 м  дымка  ясно 
-0.9 -2.2 91 -1  1024.5  -0.2  765  310  -0.9         
06 18.11.15 100 (В) 10 км    1/0 средняя 
[Ac trans]
+3.2 -1 74 +4  1024.9  0.5  766  305  -1.4         
09 18.11.15 080 (В) 10 км    9/0 средняя 
[Ac trans]
+5.5 -2 58 +5  1023.5  -1.3  765  302           
12 18.11.15 040 (СВ) 10 км    10/4 1000 м средняя, верхняя 
[Sc|Ac trans|Ci fib]
+7.6 -0.1 58 +9  1022.1  -1.4  764  299           
15 18.11.15 070 (В) 10 км    10/0 средняя, верхняя 
[Ac trans|Ci fib]
+5.4 +0.8 72 +6  1022.4  0.2  764  302    +7.6       
18 18.11.15 090 (В) 10 км    9/3 1000 м средняя 
[Sc|Ac trans]
+5.2 +1.5 77 +5  1021.4  -0.9  763  302           
21 18.11.15 070 (В) 10 км    9/0 средняя 
[Ac trans]
+5 +2.2 82 +6  1020.6  -0.9  763  301           
00 19.11.15 110 (В) 10 км    9/0 средняя 
[Ac trans]
+6 +1.6 73 +7  1019.3  -1.3  762  300           
03 19.11.15 120 (ЮВ) 10 км    10/8 1000 м средняя 
[Sc|Ac und]
+7.5 +1.6 66 +7  1017.9  -1.3  761  298  +4.9         
06 19.11.15 100 (В) 10 км  в посл. час дождь  10/8 1000 м средняя 
[Sc|Ac und]
+8 +2.4 68 +9  1018.2  0.3  761  298           
09 19.11.15 120 (ЮВ) 10 км  {дождь}  10/6 1000 м кучево-дожд., средняя 
[Cb cap|Ac und]
+9.2 +3.4 67 +10  1017.8  -0.3  761  296           
12 19.11.15 100 (В) 10 км  слаб. ливневой дождь  10/8 1000 м кучево-дожд., средняя 
[Cb cap|Ac und]
+9.4 +4.4 71 +10  1017.1  -0.7  760  295           
15 19.11.15 180 (Ю) 10 км  {ливн. осадки}  10/8 1000 м кучево-дожд., средняя 
[Cb cap|Ac und]
+10 +5 71 +11  1018.1  761  295    +10.2  0.9     
18 19.11.15 190 (Ю) 10 км  {ливн. осадки}  10/5 1000 м средняя 
[Sc|Ac und]
+10.4 +3.8 64 +12  1018.8  0.7  761  295           
21 19.11.15 210 (ЮЗ) 10 км  {ливн. осадки}  10/10 300 м кучево-дожд. 
[Cb cap]
+10.3 +5.4 72 +9  1019.9  1.1  762  295           
00 20.11.15 230 (ЮЗ) 10 км  {ливн. осадки}  6/6 1000 м 
[Sc]
+10.1 +6.5 78 +10  1019.9  762  295           
03 20.11.15 220 (ЮЗ) 10 км    5/3 1000 м верхняя 
[Sc|Ci fib]
+10.7 +6.3 74 +10  1020  762  295  +10         
06 20.11.15 210 (ЮЗ) 10 км    10/3 1000 м средняя 
[Sc|Ac As]
+11.4 +6.5 72 +12  1019.9  -0.1  762  294  +9.5         
09 20.11.15 190 (Ю) 6-12{12}  10 км    10/4 1000 м средняя, верхняя 
[Sc|Ac trans|Ci fib]
+14 +6.5 61 +13  1018.2  -1.7  761  291           
12 20.11.15 190 (Ю) 6-14{14}  10 км    8/8 600 м 
[Sc]
+14.4 +6.8 60 +14  1015.9  -2.2  759  289           
15 20.11.15 200 (Ю) 4{14}  10 км    10/0 средняя, верхняя 
[Ac trans|Ci fib]
+12.7 +5.6 62 +12  1014.4  -1.5  758  291    +15.2       
18 20.11.15 190 (Ю) 3{10}  10 км    9/0 средняя, верхняя 
[Ac trans|Ci fib]
+12.9 +4.9 58 +13  1013  -1.4  757  291           
21 20.11.15 190 (Ю) 5-10{11}  10 км    10/0 верхняя 
[Ci fib]
+14.1 +2.2 44 +14  1010.1  -2.8  755  289           
00 21.11.15 200 (Ю) 3{13}  10 км    10/0 верхняя 
[Ci fib]
+14.6 +1.4 41 +15  1008.9  -1.2  754  288           
03 21.11.15 200 (Ю) 4{12}  10 км    9/0 средняя 
[Ac trans]
+15.7 -0.3 34 +16  1008  -0.8  753  287  +12.6         
06 21.11.15 200 (Ю) 4{12}  10 км    9/3 1000 м средняя, верхняя 
[Sc|Ac trans|Ci]
+15.9 +0.3 35 +16  1008.5  0.5  754  287           
09 21.11.15 190 (Ю) 5-10{13}  10 км    9/1 1000 м средняя, верхняя 
[Sc|Ac trans|Ci fib]
+19.7 -0.6 26 +20  1007.6  -0.9  753  283           
12 21.11.15 190 (Ю) 6-13{16}  10 км    8/1 1000 м средняя, верхняя 
[Sc|Ac trans|Ci fib]
+20.2 -0.9 24 +20  1007.4  -0.2  753  283           
15 21.11.15 190 (Ю) 2{11}  10 км    8/0 средняя, верхняя 
[Ac trans|Ci fib]
+16.7 -0.1 32 +18  1008.2  0.8  753  286    +20.7       
18 21.11.15 200 (Ю) 10 км    ясно 
+17 -0.3 31 +17  1008.3  0.1  754  286           
21 21.11.15 210 (ЮЗ) 10 км    ясно 
+17 -0.4 31 +18  1009.4  1.1  754  286           
00 22.11.15 210 (ЮЗ) 10 км    ясно 
+17.5 -4 23 +18  1009.9  0.5  755  286           
03 22.11.15 190 (Ю) 10 км    4/0 верхняя 
[Ci fib]
+19 -3.2 22 +20  1010.2  0.3  755  285  +16.3         
06 22.11.15 190 (Ю) 4-13{13}  10 км    10/3 1000 м средняя, верхняя 
[Sc|Ac trans|Ci fib]
+19.7 -2.6 22 +20  1011.3  1.1  756  284           
09 22.11.15 190 (Ю) 3{13}  10 км    10/3 1000 м средняя, верхняя 
[Sc|Ac trans|Ci fib]
+20.2 -0.5 25 +20  1012.5  1.2  757  284           
12 22.11.15 200 (Ю) 4{11}  10 км    10/6 1000 м средняя, верхняя 
[Sc|Ac trans|Ci fib]
+19 +0.4 29 +19  1013  1.2  757  285           
15 22.11.15 200 (Ю) 10 км    10/6 1000 м средняя 
[Sc|Ac und]
+17.7 +1.1 33 +18  1014.6  1.5  758  287    +20.3       
18 22.11.15 170 (Ю) 10 км    6/3 1000 м средняя 
[Sc|Ac trans]
+17 +1.4 35 +18  1016.2  1.5  759  288           
21 22.11.15 240 (ЮЗ) 10 км    6/0 средняя, верхняя 
[Ac trans|Ci fib]
+13.1 +0.7 43 +14  1017.4  1.2  760  292           
00 23.11.15 тихо ()   10 км    10/0 средняя, верхняя 
[Ac trans|Ci fib]
+10.2 +1.4 54 +10  1018.4  0.9  761  295           
03 23.11.15 080 (В) 10 км    ясно 
+9 +0.6 56 +10  1019.3  0.9  762  297  +9         
06 23.11.15 160 (Ю) 10 км    4/0 верхняя 
[Ci fib]
+16.2 -2 29 +18  1020.2  762  290  +7.8         
09 23.11.15 200 (Ю) 10 км    10/0 верхняя 
[Ci fib]
+21.7 -0.8 22 +22  1021.1  763  285           
12 23.11.15 190 (Ю) 10 км    10/0 верхняя 
[Ci fib]
+22.2 +0.1 23 +22  1021.4  0.3  763  284           
15 23.11.15 190 (Ю) 10 км    10/0 верхняя 
[Ci fib]
+17.7 -1.3 27 +18  1022.6  1.1  764  289    +22.7       
18 23.11.15 200 (Ю) 10 км    8/0 верхняя 
[Ci fib]
+15.6 -2.1 30 +16  1023.5  0.9  765  292           
21 23.11.15 200 (Ю) 10 км    10/0 средняя, верхняя 
[Ac trans|Cs]
+15.2 -2.1 30 +16  1024.2  0.2  765  292           
00 24.11.15 тихо ()   10 км    10/5 1000 м верхняя 
[Sc|Ci fib]
+13.7 +0.8 41 +14  1025.1  0.9  766  294           
03 24.11.15 тихо ()   10 км    9/8 1000 м средняя 
[Sc|Ac trans]
+11.8 +4.9 63 +12  1025.6  0.5  767  295  +11.8         
06 24.11.15 170 (Ю) 10 км    9/4 1000 м средняя 
[Sc|Ac cast]
+12.2 +3.2 54 +13  1026.6  0.9  767  295  +11.3         
09 24.11.15 120 (ЮВ) 10 км    6/3 1000 м средняя, верхняя 
[Sc|Ac cast|Ci fib]
+16.2 +8.5 60 +18  1025  -1.5  766  290           
12 24.11.15 090 (В) 10 км    9/3 1500 м средняя, верхняя 
[Sc|Ac cast|Ci fib]
+18 +3.9 39 +19  1023.1  -1.8  765  288           
15 24.11.15 100 (В) 10 км    9/3 1000 м средняя, верхняя 
[Sc|Ac trans|Ci fib]
+15.2 +3.7 46 +17  1021.7  -1.4  764  291    +18       
18 24.11.15 тихо ()   10 км    10/0 верхняя 
[Ci]
+12 +5.3 64 +12  1020.7  -1  763  294           
21 24.11.15 210 (ЮЗ) 10 км    9/0 верхняя 
[Cs]
+11.9 -0.6 42 +13  1019.2  -1.5  762  294           
00 25.11.15 190 (Ю) 10 км    10/0 верхняя 
[Cs]
+13.5 -2.5 33 +14  1018.1  -1.2  761  292           
03 25.11.15 200 (Ю) 10 км    10/10 1000 м 
[Sc]
+12.9 -2.5 34 +14  1017  -1  760  293  +10.5         
06 25.11.15 190 (Ю) 10 км    10/0 средняя 
[Ac und]
+14.6 -3.2 29 +15  1016.3  -0.7  760  291           
09 25.11.15 190 (Ю) 10 км    10/0 средняя, верхняя 
[Ac trans|Cs]
+17.7 -3.9 23 +18  1015  -1.2  759  287           
12 25.11.15 190 (Ю) 10 км    10/0 средняя, верхняя 
[Ac trans|Cs]
+18.1 -2.2 25 +18  1013.7  -1.3  758  287           
15 25.11.15 210 (ЮЗ) 10 км    10/4 1000 м средняя 
[Sc|Ac und]
+15.2 -3.1 28 +17  1013.5  -0.2  757  289    +18.4       
18 25.11.15 200 (Ю) 10 км    9/8 1000 м средняя 
[Sc|Ac trans]
+14.5 -1.9 32 +15  1012.5  -1  757  290           
21 25.11.15 210 (ЮЗ) 10 км    3/0 средняя, верхняя 
[Ac trans|Ci fib]
+13.2 +3.8 53 +14  1011.4  -1  756  290           
00 26.11.15 200 (Ю) 10 км    ясно 
+12.7 +5 59 +13  1010.5  -0.9  755  290           
03 26.11.15 220 (ЮЗ) 10 км    8/0 верхняя 
[Ci fib]
+14.1 +2 44 +14  1009.5  -1  754  289  +12.2         
06 26.11.15 300 (СЗ) 10 км    10/3 1000 м средняя, верхняя 
[Sc|Ac cast|Ci fib]
+12.7 +4.4 57 +14  1010.4  0.8  755  290           
09 26.11.15 360 (С) 10 км    10/3 1000 м средняя, верхняя 
[Sc|Ac trans|Ci fib]
+13.8 +9.4 75 +15  1010.2  -0.2  755  288           
12 26.11.15 060 (СВ) 10 км    10/8 1000 м средняя, верхняя 
[Sc|Ac trans|Ci fib]
+13 +8.6 75 +14  1009.9  -0.3  755  289           
15 26.11.15 080 (В) 10 км    10/4 1000 м средняя, верхняя 
[Sc|Ac trans|Ci fib]
+11 +7.8 81 +12  1011.2  1.3  756  291    +14.3       
18 26.11.15 040 (СВ) 4000 м  дымка  9/9 1000 м 
[Sc]
+10.5 +7.8 83 +12  1012.6  1.4  757  292           
21 26.11.15 050 (СВ) 4000 м  дымка  10/8 1000 м средняя, верхняя 
[Sc|Ac trans|Ci fib]
+8.8 +5.9 82 +10  1013.8  1.2  758  295           
00 27.11.15 050 (СВ) 4000 м  слаб. ливневой дождь  10/8 1000 м кучево-дожд., средняя 
[Cb cap|Ac und]
+7.8 +5.9 88 +8  1014.1  0.2  758  296           
03 27.11.15 060 (СВ) 10 км  {ливн. осадки}  10/10 1000 м кучево-дожд. 
[Cb cap]
+6.6 +4.4 86 +6  1015.5  1.3  759  298  +6.6         
06 27.11.15 070 (В) 10 км  {ливн. осадки}  10/10 300 м 
[Sc diur, vesp]
+6.4 +3.9 84 +6  1017  1.5  760  299  +6.1         
09 27.11.15 060 (СВ) 10 км    10/10 300 м 
[St]
+6.9 +3.7 80 +7  1017.4  0.4  760  298           
12 27.11.15 050 (СВ) 10 км  {дождь}  10/10 300 м 
[St]
+6.8 +3.9 82 +7  1017.7  0.3  761  298           
15 27.11.15 060 (СВ) 4000 м  слаб. дождь  10/10 300 м 
[Frnb|Ns]
+5.9 +4.5 91 +6  1018.8  761  300    +7.3     
18 27.11.15 060 (СВ) 4000 м  слаб. дождь  10/10 300 м 
[Frnb|Ns]
+6.1 +4.8 91 +6  1019.5  0.8  762  300           
21 27.11.15 040 (СВ) 4000 м  слаб. дождь  10/10 300 м 
[Frnb|Ns]
+5.4 +4.1 91 +6  1019.9  0.8  762  301           
00 28.11.15 060 (СВ) 10 км  {дождь}  10/10 300 м 
[St]
+5.4 +4 91 +5  1019.9  0.8  762  301           
03 28.11.15 050 (СВ) 10 км    10/10 300 м 
[St]
+5.2 +3.7 90 +5  1019.7  -0.3  762  301  +5.2       
06 28.11.15 070 (В) 10 км  {дождь}  10/10 300 м 
[St]
+5.7 +4 89 +5  1019.3  -0.3  762  300  +5.1         
09 28.11.15 050 (СВ) 10 км  {дождь}  10/8 300 м средняя 
[St|Ac und]
+7.5 +5.2 85 +7  1017.8  -1.5  761  297           
12 28.11.15 070 (В) 10 км  {дождь}  8/4 300 м средняя, верхняя 
[St|Ac trans|Cc]
+10.2 +6.9 80 +10  1015.9  -1.8  759  294           
15 28.11.15 070 (В) 10 км    9/4 1000 м средняя 
[Sc|Ac trans]
+8.2 +5.7 84 +8  1014.9  -1  758  296    +10.5  0.3     
18 28.11.15 060 (СВ) 10 км    9/9 1000 м 
[Sc]
+7.9 +5.1 83 +8  1013.2  -1.7  757  296           
21 28.11.15 070 (В) 10 км    9/8 1000 м средняя 
[Sc|Ac trans]
+7.3 +4.6 83 +7  1012.2  -1.1  756  296           
00 29.11.15 050 (СВ) 4000 м  слаб. дождь  10/10 600 м 
[Ns]
+7 +5.3 89 +8  1011.4  -0.8  756  296           
03 29.11.15 100 (В) 10 км  {дождь}  9/9 300 м 
[Frnb]
+6.8 +5.4 91 +6  1010.4  -0.9  755  296  +6.8       
06 29.11.15 090 (В) 10 км  в посл. час дождь  10/10 1000 м 
[Sc]
+7.7 +5.8 88 +7  1010  -0.4  755  295           
09 29.11.15 130 (ЮВ) 4000 м  слаб. ливневой дождь  10/10 300 м кучево-дожд. 
[Cb cap]
+10.7 +9 89 +12  1010.7  0.8  755  291           
12 29.11.15 200 (Ю) 10 км  {ливн. осадки}  10/6 1000 м средняя, верхняя 
[Sc diur, vesp|Ac trans|Ci fib]
+14.5 +9.8 73 +16  1011.5  0.8  756  287           
15 29.11.15 230 (ЮЗ) 10 км    10/8 1000 м 
[Sc]
+12 +7 71 +12  1014  2.5  758  291    +14.7     
18 29.11.15 210 (ЮЗ) 10 км    6/6 1000 м 
[Sc]
+10.6 +6 73 +12  1015.2  1.1  759  293           
21 29.11.15 180 (Ю) 10 км    10/10 1000 м 
[Sc]
+10.9 +5.8 71 +11  1015.9  0.7  759  293           
00 30.11.15 190 (Ю) 10 км    10/8 1000 м верхняя 
[Sc|Ci fib]
+10.6 +5.5 71 +11  1016.1  0.1  759  294           
03 30.11.15 210 (ЮЗ) 10 км    8/8 1000 м 
[Sc]
+9.8 +6 77 +11  1016.4  0.3  760  294  +9.3         
06 30.11.15 220 (ЮЗ) 4000 м  слаб. ливневой дождь  10/10 300 м кучево-дожд. 
[Cb cap]
+9.3 +7.2 87 +10  1017.2  0.8  760  295           
09 30.11.15 320 (СЗ) 10 км  в посл. час ливневой дождь  10/10 300 м кучево-дожд. 
[Cb cap]
+9.6 +7.5 87 +11  1017.3  0.2  760  295           
12 30.11.15 300 (СЗ) 10 км  {ливн. осадки}  10/10 600 м кучево-дожд. 
[Cb cap]
+9.4 +5.7 78 +9  1017.4  760  295           
15 30.11.15 270 (З) 10 км    10/5 1000 м средняя 
[Sc|Ac und]
+8 +5.1 82 +9  1017.8  0.4  761  297    +10.1  0.7     
18 30.11.15 310 (СЗ) 10 км    10/5 1000 м средняя 
[Sc|Ac und]
+7 +4.1 82 +8  1017.9  0.1  761  298           
21 30.11.15 070 (В) 10 км    9/6 600 м средняя 
[Sc|Ac trans]
+6.4 +3.3 81 +7  1017.8  0.1  761  299           
00 01.12.15 170 (Ю) 10 км    9/9 600 м 
[Sc]
+6.5 +4.3 86 +7  1017  -0.8  760  298           
03 01.12.15 180 (Ю) 4000 м  дымка  ясно 
+5.8 +4.6 92 +7  1016.5  -0.5  760  299  +5.3         
06 01.12.15 240 (ЮЗ) 10 км  в посл. час ливневой дождь  10/6 1000 м кучево-дожд., средняя, верхняя 
[Cb cap|Ac trans|Ci fib]
+7.4 +4.8 84 +8  1016.9  -0.5  760  297           
09 01.12.15 200 (Ю) 10 км    8/3 1000 м кучево-дожд., средняя 
[Cb cap|Ac trans]
+8.9 +5.4 79 +9  1016.5  -0.4  760  296           
12 01.12.15 210 (ЮЗ) 10 км    8/5 1000 м кучево-дожд., средняя 
[Cb cap|Ac trans]
+9.8 +6 77 +9  1015.6  -0.9  759  294           
15 01.12.15 160 (Ю) 10 км    6/4 1000 м кучево-дожд., средняя, верхняя 
[Cb cap|Ac trans|Ci fib]
+8.2 +5.2 81 +9  1014.8  -0.8  758  296    +10  0.1     
18 01.12.15 180 (Ю) 10 км    10/3 1000 м средняя, верхняя 
[Sc|Ac trans|Ci fib]
+9.1 +5.5 78 +9  1012.5  -2.3  757  294           
21 01.12.15 200 (Ю) 4000 м  слаб. ливневой дождь  10/6 600 м кучево-дожд., средняя 
[Cb cap|Ac und]
+9.5 +5.5 76 +9  1010.1  -2.4  755  293           
00 02.12.15 170 (Ю) 10 км  в посл. час ливневой дождь  10/5 600 м кучево-дожд., верхняя 
[Cb cap|Ci fib]
+8.9 +5.6 80 +8  1006.1  -4  752  292           
03 02.12.15 250 (З) 3{11}  2000 м  ливневой дождь  10/10 300 м кучево-дожд. 
[Cb cap]
+3.7 +2.8 94 +2  1007  0.8  752  299  +3.7    15     
06 02.12.15 200 (Ю) 4000 м  слаб. ливневой дождь{гроза}  10/10 300 м кучево-дожд. 
[Cb cap]
+2.4 +1.6 94 +2  1009.8  2.8  755  301  +2.3         
Время (UTC), дата Ветер
(°,м/с) 
Видим.   Явления Облачность Т
(°С)
Тd
(°С)
f(%) Тe
(°С)
Pmin
(гПа)
dP
(гПа)
Po
(мм)
O2
(г/м3)
Тmin Tmax R s Состояние
почвы